| time (UTC) | temp F | wind direction | speed MPH | gust MPH | rain 1hr in | rain 24hr in | rain mn in | humidity % | barometer mb |
| 20260508081559 | 32 | 0 | 0.0 | 0.0 | 0.00 | 0.00 | 0.00 | 92 | 1015.1 |
| 20260508080044 | 32 | 0 | 0.0 | 0.0 | 0.00 | 0.00 | 0.00 | 92 | 1014.8 |
| 20260508074546 | 32 | 0 | 0.0 | 0.0 | 0.00 | 0.00 | 0.00 | 91 | 1014.7 |
| 20260508073104 | 32 | 0 | 0.0 | 0.0 | 0.00 | 0.00 | 0.00 | 90 | 1014.5 |
| 20260508071540 | 33 | 0 | 0.0 | 0.0 | 0.00 | 0.00 | 0.00 | 91 | 1014.5 |
| 20260508070039 | 33 | 0 | 0.0 | 0.0 | 0.00 | 0.00 | 0.00 | 90 | 1014.7 |
| 20260508064547 | 33 | 0 | 0.0 | 0.0 | 0.00 | 0.01 | 0.00 | 89 | 1014.6 |
| 20260508063044 | 34 | 0 | 0.0 | 0.0 | 0.00 | 0.01 | 0.00 | 88 | 1014.8 |
| 20260508061544 | 34 | 0 | 0.0 | 0.0 | 0.00 | 0.01 | 0.00 | 88 | 1014.6 |
| 20260508060059 | 35 | 0 | 0.0 | 0.0 | 0.00 | 0.01 | 0.00 | 86 | 1014.5 |
| 20260508054539 | 35 | 0 | 0.0 | 0.0 | 0.00 | 0.03 | 0.00 | 85 | 1014.6 |
| 20260508053037 | 36 | 0 | 0.0 | 0.0 | 0.00 | 0.03 | 0.00 | 84 | 1014.5 |
| 20260508051559 | 37 | 0 | 0.0 | 0.0 | 0.00 | 0.03 | 0.00 | 83 | 1014.6 |
| 20260508050043 | 37 | 0 | 0.0 | 0.0 | 0.00 | 0.03 | 0.00 | 83 | 1014.8 |
| 20260508044546 | 37 | 0 | 0.0 | 0.0 | 0.00 | 0.03 | 0.00 | 82 | 1014.7 |
| 20260508043040 | 38 | 0 | 0.0 | 0.0 | 0.00 | 0.03 | 0.00 | 81 | 1014.6 |
| 20260508041537 | 38 | 0 | 0.0 | 0.0 | 0.00 | 0.03 | 0.00 | 80 | 1014.6 |
| 20260508040052 | 39 | 0 | 0.0 | 0.0 | 0.00 | 0.03 | 0.00 | 79 | 1014.6 |
| 20260508034547 | 40 | 0 | 0.0 | 0.0 | 0.00 | 0.03 | 0.03 | 79 | 1014.4 |
| 20260508033044 | 40 | 0 | 0.0 | 0.0 | 0.00 | 0.03 | 0.03 | 78 | 1014.4 |
| 20260508031541 | 41 | 0 | 0.0 | 0.0 | 0.00 | 0.03 | 0.03 | 76 | 1014.2 |
| 20260508030038 | 41 | 0 | 0.0 | 0.0 | 0.00 | 0.03 | 0.03 | 76 | 1014.1 |
| 20260508024611 | 41 | 0 | 0.0 | 0.0 | 0.00 | 0.04 | 0.03 | 77 | 1014.0 |
| 20260508023040 | 42 | 0 | 0.0 | 0.0 | 0.00 | 0.04 | 0.03 | 77 | 1013.9 |
| 20260508021541 | 43 | 0 | 0.0 | 0.0 | 0.00 | 0.04 | 0.03 | 78 | 1013.6 |
| 20260508020047 | 43 | 0 | 0.0 | 0.0 | 0.00 | 0.04 | 0.03 | 76 | 1013.5 |
| 20260508014549 | 44 | 0 | 0.0 | 0.0 | 0.00 | 0.04 | 0.03 | 73 | 1013.4 |
| 20260508013043 | 46 | 0 | 0.0 | 0.0 | 0.00 | 0.04 | 0.03 | 71 | 1013.2 |
| 20260508011541 | 48 | 0 | 0.0 | 2.0 | 0.00 | 0.04 | 0.03 | 64 | 1013.0 |
| 20260508010049 | 48 | 0 | 0.0 | 1.0 | 0.00 | 0.04 | 0.03 | 63 | 1012.7 |
| 20260508004551 | 49 | 0 | 0.0 | 3.0 | 0.00 | 0.05 | 0.03 | 58 | 1012.6 |
| 20260508003040 | 50 | 252 | 1.0 | 3.0 | 0.00 | 0.05 | 0.03 | 57 | 1012.4 |
| 20260508001546 | 51 | 269 | 2.0 | 8.0 | 0.00 | 0.05 | 0.03 | 55 | 1012.3 |
| 20260508000038 | 52 | 271 | 4.0 | 10.0 | 0.00 | 0.05 | 0.03 | 53 | 1012.1 |
| 20260507234538 | 53 | 288 | 3.0 | 9.0 | 0.00 | 0.09 | 0.03 | 53 | 1012.0 |
| 20260507233046 | 53 | 246 | 5.0 | 13.0 | 0.00 | 0.09 | 0.03 | 53 | 1012.0 |
| 20260507231543 | 54 | 292 | 4.0 | 8.0 | 0.00 | 0.09 | 0.03 | 52 | 1011.9 |
| 20260507230055 | 55 | 242 | 5.0 | 14.0 | 0.00 | 0.09 | 0.03 | 52 | 1011.7 |
| 20260507224537 | 55 | 279 | 9.0 | 14.0 | 0.00 | 0.10 | 0.03 | 51 | 1011.7 |
| 20260507223040 | 54 | 266 | 8.0 | 13.0 | 0.00 | 0.10 | 0.03 | 53 | 1011.7 |
| 20260507221545 | 54 | 285 | 7.0 | 13.0 | 0.00 | 0.10 | 0.03 | 53 | 1011.5 |
| 20260507220045 | 55 | 275 | 10.0 | 19.0 | 0.00 | 0.10 | 0.03 | 52 | 1011.3 |
| 20260507214539 | 56 | 268 | 9.0 | 16.0 | 0.00 | 0.12 | 0.03 | 50 | 1011.0 |
| 20260507213039 | 55 | 288 | 4.0 | 14.0 | 0.00 | 0.12 | 0.03 | 53 | 1010.9 |
| 20260507211543 | 57 | 259 | 9.0 | 16.0 | 0.00 | 0.12 | 0.03 | 51 | 1010.7 |
| 20260507210056 | 55 | 267 | 3.0 | 12.0 | 0.00 | 0.12 | 0.03 | 55 | 1010.4 |
| 20260507204542 | 55 | 259 | 5.0 | 14.0 | 0.00 | 0.13 | 0.03 | 58 | 1010.6 |
| 20260507203108 | 54 | 341 | 5.0 | 15.0 | 0.00 | 0.13 | 0.03 | 55 | 1010.6 |
| 20260507201537 | 54 | 296 | 5.0 | 13.0 | 0.00 | 0.13 | 0.03 | 59 | 1010.7 |
| 20260507200044 | 54 | 253 | 5.0 | 15.0 | 0.00 | 0.13 | 0.03 | 59 | 1010.7 |
| 20260507194538 | 54 | 333 | 6.0 | 12.0 | 0.00 | 0.14 | 0.03 | 59 | 1011.1 |
| 20260507193040 | 55 | 331 | 6.0 | 12.0 | 0.00 | 0.14 | 0.03 | 58 | 1011.1 |
| 20260507191539 | 56 | 325 | 7.0 | 17.0 | 0.00 | 0.14 | 0.03 | 56 | 1011.2 |
| 20260507190053 | 54 | 284 | 2.0 | 11.0 | 0.00 | 0.14 | 0.03 | 59 | 1011.2 |
| 20260507184540 | 55 | 321 | 4.0 | 14.0 | 0.00 | 0.15 | 0.03 | 60 | 1011.2 |
| 20260507183038 | 54 | 302 | 4.0 | 11.0 | 0.00 | 0.15 | 0.03 | 59 | 1011.5 |
| 20260507181537 | 54 | 275 | 7.0 | 18.0 | 0.00 | 0.15 | 0.03 | 61 | 1011.4 |
| 20260507180040 | 54 | 343 | 4.0 | 15.0 | 0.00 | 0.15 | 0.03 | 58 | 1011.5 |
| 20260507174547 | 53 | 315 | 6.0 | 10.0 | 0.00 | 0.23 | 0.03 | 61 | 1011.4 |
| 20260507173115 | 53 | 261 | 8.0 | 13.0 | 0.00 | 0.23 | 0.03 | 62 | 1011.7 |
| 20260507171543 | 52 | 240 | 5.0 | 12.0 | 0.00 | 0.23 | 0.03 | 63 | 1012.1 |
| 20260507170040 | 52 | 269 | 8.0 | 13.0 | 0.00 | 0.23 | 0.03 | 62 | 1012.1 |
| 20260507164537 | 53 | 302 | 5.0 | 12.0 | 0.00 | 0.24 | 0.03 | 62 | 1012.2 |
| 20260507163040 | 53 | 275 | 7.0 | 13.0 | 0.00 | 0.24 | 0.03 | 62 | 1012.4 |
| 20260507161549 | 53 | 232 | 5.0 | 12.0 | 0.00 | 0.24 | 0.03 | 62 | 1012.4 |
| 20260507160050 | 52 | 279 | 4.0 | 11.0 | 0.00 | 0.24 | 0.03 | 59 | 1012.4 |
| 20260507154547 | 52 | 42 | 3.0 | 11.0 | 0.00 | 0.25 | 0.03 | 63 | 1012.5 |
| 20260507153038 | 51 | 107 | 3.0 | 9.0 | 0.00 | 0.25 | 0.03 | 61 | 1012.6 |
| 20260507151537 | 50 | 271 | 3.0 | 9.0 | 0.00 | 0.25 | 0.03 | 67 | 1012.5 |
| 20260507150041 | 50 | 258 | 0.0 | 9.0 | 0.00 | 0.25 | 0.03 | 70 | 1012.9 |
| 20260507144538 | 48 | 332 | 3.0 | 8.0 | 0.00 | 0.25 | 0.03 | 72 | 1012.8 |
| 20260507143050 | 48 | 298 | 2.0 | 7.0 | 0.00 | 0.25 | 0.03 | 73 | 1012.9 |
| 20260507141548 | 48 | 304 | 2.0 | 5.0 | 0.00 | 0.25 | 0.03 | 75 | 1013.0 |
| 20260507140037 | 48 | 114 | 0.0 | 4.0 | 0.00 | 0.25 | 0.03 | 80 | 1013.4 |
| 20260507134546 | 47 | 36 | 2.0 | 7.0 | 0.00 | 0.25 | 0.03 | 79 | 1013.6 |
| 20260507133109 | 46 | 5 | 1.0 | 5.0 | 0.00 | 0.25 | 0.03 | 84 | 1013.5 |
| 20260507131545 | 46 | 60 | 1.0 | 5.0 | 0.00 | 0.25 | 0.03 | 84 | 1013.4 |
| 20260507130048 | 46 | 0 | 1.0 | 4.0 | 0.00 | 0.25 | 0.03 | 87 | 1013.6 |
| 20260507124856 | 45 | 0 | 1.0 | 5.0 | 0.00 | 0.29 | 0.03 | 88 | 1013.4 |
| 20260507123040 | 45 | 36 | 0.0 | 3.0 | 0.00 | 0.29 | 0.03 | 91 | 1013.3 |
| 20260507121542 | 45 | 315 | 1.0 | 3.0 | 0.00 | 0.29 | 0.03 | 93 | 1013.5 |
| 20260507113044 | 44 | 0 | 0.0 | 1.0 | 0.00 | 0.48 | 0.03 | 94 | 1013.1 |
| 20260507111543 | 44 | 0 | 0.0 | 2.0 | 0.00 | 0.48 | 0.03 | 94 | 1013.0 |
| 20260507110046 | 44 | 343 | 0.0 | 2.0 | 0.00 | 0.48 | 0.03 | 94 | 1012.8 |
| 20260507104547 | 44 | 0 | 0.0 | 1.0 | 0.00 | 0.66 | 0.03 | 94 | 1012.6 |
| 20260507103044 | 44 | 0 | 0.0 | 2.0 | 0.00 | 0.66 | 0.03 | 93 | 1012.5 |
| 20260507101547 | 44 | 0 | 0.0 | 2.0 | 0.00 | 0.66 | 0.03 | 93 | 1012.5 |
| 20260507100042 | 44 | 0 | 0.0 | 1.0 | 0.00 | 0.66 | 0.03 | 93 | 1012.7 |
| 20260507094554 | 44 | 36 | 0.0 | 1.0 | 0.00 | 0.76 | 0.03 | 93 | 1012.7 |
| 20260507093041 | 44 | 0 | 0.0 | 3.0 | 0.00 | 0.76 | 0.03 | 93 | 1012.7 |
| 20260507091537 | 44 | 84 | 1.0 | 5.0 | 0.00 | 0.76 | 0.03 | 93 | 1012.7 |
| 20260507090037 | 44 | 94 | 2.0 | 6.0 | 0.00 | 0.76 | 0.03 | 94 | 1012.5 |
| 20260507084541 | 44 | 41 | 1.0 | 6.0 | 0.00 | 0.86 | 0.03 | 94 | 1012.5 |
| 20260507083044 | 44 | 328 | 3.0 | 9.0 | 0.00 | 0.86 | 0.03 | 94 | 1012.8 |